Date String (YYYY-MM-DD hh:mm:ss) UTC,Instrument flags,Ambient pressure (hPa),Sample flow (lpm),Bypass flow (lpm),Sample temperature (°C),Ambient temperature (°C),ASC tube jacket temperature (°C),LED temperature (°C),Box temperature (°C),Sample RH (%),Span deviation,Mass concentration (μg/m³),Mass concentration (μg/m³),Mass concentration (μg/m³)
DateTimeUTC,F1_M11,P_M11,Q1_M11,Q2_M11,T1_M11,T2_M11,T3_M11,T4_M11,T5_M11,U1_M11,ZSPAN_M11,X0_M11,X2_M11,X1_M11
2022-07-30 11:00:00,,0829.5,5.00,0.00,30.0,28.9,00.0,38.8,31.8,27.0,0000.0,0009.33,0005.75,0005.19
2022-07-30 11:01:00,,0829.5,4.99,0.00,30.0,28.9,00.0,38.8,31.8,26.8,0000.0,0009.29,0005.73,0005.17
2022-07-30 11:02:00,,0829.5,5.01,0.00,30.0,28.9,00.0,38.8,31.8,26.8,0000.0,0009.37,0005.73,0005.14
2022-07-30 11:03:00,,0829.5,5.00,0.00,30.0,28.9,00.0,38.8,31.9,26.5,0000.0,0009.67,0005.72,0005.12
2022-07-30 11:04:00,,0829.5,5.00,0.00,30.0,28.9,00.0,38.8,31.9,26.3,0000.0,0009.48,0005.65,0005.08
2022-07-30 11:05:00,,0829.5,5.00,0.00,30.0,28.9,00.0,38.8,31.9,26.0,0000.0,0009.48,0005.61,0005.04
2022-07-30 11:06:00,,0829.6,5.01,0.00,30.0,28.9,00.0,38.8,31.9,25.9,0000.0,0009.50,0005.58,0005.01
2022-07-30 11:07:00,,0829.6,4.99,0.00,30.0,28.9,00.0,38.8,31.9,25.5,0000.0,0009.26,0005.53,0004.98
2022-07-30 11:08:00,,0829.5,5.01,0.00,30.0,28.9,00.0,38.8,31.9,25.2,0000.0,0008.99,0005.46,0004.94
2022-07-30 11:09:00,,0829.5,5.00,0.00,30.0,28.9,00.0,38.8,31.9,25.2,0000.0,0009.09,0005.40,0004.91
2022-07-30 11:10:00,,0829.5,5.00,0.00,30.0,28.9,00.0,38.8,31.9,25.2,0000.0,0009.06,0005.37,0004.89
2022-07-30 11:11:00,,0829.5,5.00,0.00,30.0,28.9,00.0,38.9,31.9,25.2,0000.0,0008.89,0005.32,0004.86
2022-07-30 11:12:00,,0829.5,4.99,0.00,30.0,28.9,00.0,38.9,31.9,25.2,0000.0,0008.86,0005.29,0004.82
2022-07-30 11:13:00,,0829.6,5.02,0.00,30.0,28.9,00.0,38.9,31.9,25.3,0000.0,0008.80,0005.26,0004.80
2022-07-30 11:14:00,,0829.6,4.99,0.00,30.0,28.9,00.0,38.9,31.9,25.4,0000.0,0008.41,0005.23,0004.78
2022-07-30 11:15:00,,0829.6,5.01,0.00,30.0,28.9,00.0,38.9,31.9,25.5,0000.0,0008.37,0005.24,0004.78
2022-07-30 11:16:00,,0829.6,5.01,0.00,30.0,28.9,00.0,38.9,31.9,25.5,0000.0,0008.29,0005.21,0004.79
2022-07-30 11:17:00,,0829.9,5.01,0.00,30.0,28.9,00.0,38.9,31.9,25.5,0000.0,0008.16,0005.19,0004.78
2022-07-30 11:18:00,,0829.8,4.98,0.00,30.1,29.0,00.0,38.9,31.9,25.5,0000.0,0008.19,0005.17,0004.78
2022-07-30 11:19:00,,0829.6,5.00,0.00,30.1,29.0,00.0,38.9,31.9,25.5,0000.0,0008.42,0005.20,0004.80
2022-07-30 11:20:00,,0829.6,5.01,0.00,30.1,29.0,00.0,38.9,32.0,25.5,0000.0,0008.58,0005.24,0004.81
2022-07-30 11:21:00,,0829.6,4.99,0.00,30.1,29.0,00.0,38.9,32.0,25.7,0000.0,0008.48,0005.24,0004.82
2022-07-30 11:22:00,,0829.7,5.00,0.00,30.1,29.0,00.0,38.9,32.0,25.7,0000.0,0008.65,0005.27,0004.83
2022-07-30 11:23:00,,0829.7,5.01,0.00,30.1,29.0,00.0,38.9,32.0,25.9,0000.0,0009.01,0005.29,0004.84
2022-07-30 11:24:00,,0829.7,5.00,0.00,30.1,29.1,00.0,38.9,32.0,26.2,0000.0,0009.02,0005.29,0004.85
2022-07-30 11:25:00,,0829.7,5.01,0.00,30.1,29.1,00.0,38.9,32.0,26.7,0000.0,0009.04,0005.31,0004.87
2022-07-30 11:26:00,,0829.7,5.00,0.00,30.1,29.1,00.0,39.0,32.0,27.1,0000.0,0008.95,0005.29,0004.89
2022-07-30 11:27:00,,0829.7,5.00,0.00,30.1,29.1,00.0,39.0,32.0,27.2,0000.0,0008.97,0005.31,0004.90
2022-07-30 11:28:00,,0829.7,4.98,0.00,30.2,29.1,00.0,39.0,32.1,27.8,0000.0,0009.65,0005.37,0004.93
2022-07-30 11:29:00,,0829.7,5.01,0.00,30.2,29.1,00.0,39.0,32.1,29.2,0000.0,0009.98,0005.44,0004.97
2022-07-30 11:30:00,,0829.7,5.01,0.00,30.2,29.2,00.0,39.0,32.1,29.0,0000.0,0010.00,0005.47,0005.00
2022-07-30 11:31:00,,0829.6,5.00,0.00,30.2,29.2,00.0,39.0,32.1,28.8,0000.0,0009.64,0005.46,0005.04
2022-07-30 11:32:00,,0829.6,5.00,0.00,30.2,29.2,00.0,39.0,32.1,28.5,0000.0,0009.69,0005.52,0005.08
2022-07-30 11:33:00,,0829.6,5.00,0.00,30.2,29.2,00.0,39.0,32.1,28.3,0000.0,0009.55,0005.54,0005.12
2022-07-30 11:34:00,,0829.7,5.00,0.00,30.2,29.2,00.0,39.0,32.1,28.5,0000.0,0009.35,0005.56,0005.16
2022-07-30 11:35:00,,0829.7,5.00,0.00,30.2,29.2,00.0,39.0,32.1,28.4,0000.0,0009.31,0005.57,0005.19
2022-07-30 11:36:00,,0829.7,5.00,0.00,30.2,29.2,00.0,39.0,32.1,28.9,0000.0,0009.40,0005.62,0005.22
2022-07-30 11:37:00,,0829.8,5.00,0.00,30.2,29.2,00.0,39.0,32.1,28.6,0000.0,0009.42,0005.64,0005.24
2022-07-30 11:38:00,,0829.8,5.00,0.00,30.2,29.2,00.0,39.0,32.1,28.6,0000.0,0009.43,0005.66,0005.25
2022-07-30 11:39:00,,0829.8,5.00,0.00,30.2,29.2,00.0,39.1,32.1,28.4,0000.0,0008.92,0005.67,0005.27
2022-07-30 11:40:00,,0829.8,5.00,0.00,30.2,29.1,00.0,39.1,32.0,29.2,0000.0,0008.57,0005.62,0005.27
2022-07-30 11:41:00,,0829.9,5.00,0.00,30.2,29.1,00.0,39.1,32.0,30.6,0000.0,0009.21,0005.69,0005.33
2022-07-30 11:42:00,,0829.9,5.00,0.00,30.2,29.1,00.0,39.1,32.0,30.7,0000.0,0009.43,0005.77,0005.38
2022-07-30 11:43:00,,0829.9,5.00,0.00,30.2,29.1,00.0,39.1,32.0,31.2,0000.0,0009.55,0005.82,0005.44
2022-07-30 11:44:00,,0829.8,5.00,0.00,30.2,29.1,00.0,39.1,32.0,30.9,0000.0,0010.04,0005.88,0005.49
2022-07-30 11:45:00,,0829.8,5.00,0.00,30.2,29.1,00.0,39.1,32.1,31.3,0000.0,0010.07,0005.97,0005.56
2022-07-30 11:46:00,,0829.8,4.99,0.00,30.2,29.1,00.0,39.1,32.1,32.2,0000.0,0010.18,0006.10,0005.67
2022-07-30 11:47:00,,0829.8,5.00,0.00,30.2,29.2,00.0,39.1,32.1,32.6,0000.0,0010.28,0006.21,0005.78
2022-07-30 11:48:00,,0829.8,5.00,0.00,30.2,29.2,00.0,39.1,32.1,32.6,0000.8,0011.62,0006.39,0005.92
2022-07-30 11:49:00,,0829.9,5.00,0.00,30.2,29.2,00.0,39.1,32.1,32.7,0001.3,0012.43,0006.54,0006.07
2022-07-30 11:50:00,,0829.9,5.00,0.00,30.3,29.2,00.0,39.1,32.1,32.7,0001.2,0013.03,0006.66,0006.19
2022-07-30 11:51:00,,0829.9,5.00,0.00,30.3,29.2,00.0,39.1,32.1,32.6,0001.1,0013.36,0006.79,0006.30
2022-07-30 11:52:00,,0829.8,5.01,0.00,30.3,29.2,00.0,39.1,32.2,32.2,0000.8,0012.78,0006.86,0006.36
2022-07-30 11:53:00,,0829.9,5.00,0.00,30.3,29.2,00.0,39.1,32.2,29.3,0000.7,0012.66,0006.82,0006.34
2022-07-30 11:54:00,,0829.8,4.99,0.00,30.3,29.2,00.0,39.1,32.2,28.4,0000.8,0012.83,0006.77,0006.26
2022-07-30 11:55:00,,0829.9,4.99,0.00,30.3,29.2,00.0,39.1,32.2,28.8,0001.2,0013.05,0006.75,0006.24
2022-07-30 11:56:00,,0829.9,5.00,0.00,30.3,29.2,00.0,39.1,32.2,29.7,0001.2,0013.01,0006.72,0006.21
2022-07-30 11:57:00,,0829.9,5.00,0.00,30.3,29.2,00.0,39.1,32.2,29.9,0000.6,0012.97,0006.67,0006.15
2022-07-30 11:58:00,,0829.8,5.00,0.00,30.3,29.2,00.0,39.1,32.2,30.1,0001.0,0013.00,0006.63,0006.09
2022-07-30 11:59:00,,0829.8,5.00,0.00,30.3,29.2,00.0,39.1,32.2,30.3,0000.9,0011.95,0006.57,0006.04
